This is the latest recevied weather packets stored in our database for station/object N9VPV. If no packets are shown the sender has not sent any weather packets the latest 10 day(s).
| Time | Temp. | Humidity | Pressure | Rain* | Wind** | Luminosity | Snow |
|---|---|---|---|---|---|---|---|
| 1777709350 | 6.11° C | 79% | 1018.1 hPa | 0 mm | - | 0 W/m² | - |
| 1777708452 | 6.11° C | 76% | 1017.8 hPa | 0 mm | - | 0 W/m² | - |
| 1777707547 | 7.22° C | 74% | 1017.6 hPa | 0 mm | - | 0 W/m² | - |
| 1777706643 | 6.67° C | 74% | 1017.6 hPa | 0 mm | - | 0 W/m² | - |
| 1777705742 | 7.22° C | 73% | 1017.8 hPa | 0 mm | - | 0 W/m² | - |
| 1777704842 | 7.22° C | 72% | 1018.1 hPa | 0 mm | - | 0 W/m² | - |
| 1777703939 | 7.78° C | 71% | 1018.2 hPa | 0 mm | - | 0 W/m² | - |
| 1777703038 | 7.22° C | 72% | 1018.2 hPa | 0 mm | - | 0 W/m² | - |
| 1777702138 | 7.22° C | 75% | 1018.2 hPa | 0 mm | - | 0 W/m² | - |
| 1777701235 | 7.22° C | 74% | 1018.1 hPa | 0 mm | - | 0 W/m² | - |
| 1777700316 | 7.22° C | 73% | 1018.1 hPa | 0 mm | - | 0 W/m² | - |
| 1777699386 | 7.22° C | 72% | 1018.1 hPa | 0 mm | - | 0 W/m² | - |
| 1777698484 | 7.22° C | 72% | 1017.9 hPa | 0 mm | - | 0 W/m² | - |
| 1777697583 | 7.22° C | 71% | 1017.9 hPa | 0 mm | - | 0 W/m² | - |
| 1777696664 | 7.78° C | 70% | 1017.8 hPa | 0 mm | - | 0 W/m² | - |
| 1777695759 | 7.78° C | 68% | 1017.8 hPa | 0 mm | - | 0 W/m² | - |
| 1777694842 | 8.33° C | 67% | 1017.7 hPa | 0 mm | - | 0 W/m² | - |
| 1777693934 | 8.33° C | 64% | 1017.7 hPa | 0 mm | - | 0 W/m² | - |
| 1777693035 | 8.89° C | 64% | 1017.6 hPa | 0 mm | - | 0 W/m² | - |
| 1777692131 | 8.89° C | 65% | 1017.6 hPa | 0 mm | - | 0 W/m² | - |
| 1777691227 | 8.89° C | 64% | 1017.5 hPa | 0 mm | - | 0 W/m² | - |
| 1777690325 | 9.44° C | 63% | 1017.3 hPa | 0 mm | - | 0 W/m² | - |
| 1777689422 | 9.44° C | 61% | 1017.2 hPa | 0 mm | - | 0 W/m² | - |
| 1777688511 | 9.44° C | 61% | 1017 hPa | 0 mm | - | 0 W/m² | - |
| 1777687611 | 10° C | 61% | 1016.8 hPa | 0 mm | - | 0 W/m² | - |
* Rain latest hour (hover to see other rain measurements)
** Current wind speed in m/s (hover to see current wind gust speed)